| time (UTC) | temp C | wind direction | speed KPH | gust KPH | rain 1hr cm | rain 24hr cm | rain mn cm | humidity % | barometer mb |
| 20260831112012 | 25 | 100 | 0.0 | 3.2 | 0.10 | 0.23 | 0.23 | 87 | 1010.1 |
| 20260831111513 | 25 | 100 | 0.0 | 3.2 | 0.10 | 0.23 | 0.23 | 87 | 1010.0 |
| 20260831111020 | 26 | 100 | 0.0 | 3.2 | 0.13 | 0.23 | 0.23 | 86 | 1010.1 |
| 20260831110519 | 26 | 100 | 0.0 | 3.2 | 0.13 | 0.23 | 0.23 | 86 | 1010.0 |
| 20260831110023 | 26 | 99 | 0.0 | 3.2 | 0.10 | 0.23 | 0.23 | 86 | 1010.0 |
| 20260831105523 | 26 | 98 | 0.0 | 3.2 | 0.13 | 0.23 | 0.23 | 86 | 1010.0 |
| 20260831105009 | 26 | 98 | 0.0 | 3.2 | 0.10 | 0.20 | 0.20 | 86 | 1010.0 |
| 20260831104516 | 26 | 98 | 0.0 | 1.6 | 0.10 | 0.20 | 0.20 | 86 | 1010.0 |
| 20260831104011 | 26 | 98 | 0.0 | 1.6 | 0.10 | 0.18 | 0.18 | 86 | 1010.0 |
| 20260831103511 | 26 | 98 | 0.0 | 3.2 | 0.10 | 0.18 | 0.18 | 85 | 1009.9 |
| 20260831103021 | 26 | 98 | 0.0 | 3.2 | 0.13 | 0.18 | 0.18 | 85 | 1009.9 |
| 20260831102519 | 26 | 98 | 0.0 | 3.2 | 0.10 | 0.15 | 0.15 | 85 | 1009.8 |
| 20260831102024 | 26 | 98 | 0.0 | 3.2 | 0.10 | 0.15 | 0.15 | 85 | 1009.7 |
| 20260831101526 | 26 | 98 | 0.0 | 4.8 | 0.10 | 0.15 | 0.15 | 85 | 1009.7 |
| 20260831101009 | 26 | 98 | 0.0 | 4.8 | 0.10 | 0.13 | 0.13 | 84 | 1009.6 |
| 20260831100507 | 26 | 98 | 0.0 | 4.8 | 0.10 | 0.13 | 0.13 | 84 | 1009.6 |
| 20260831100025 | 26 | 99 | 1.6 | 4.8 | 0.10 | 0.13 | 0.13 | 84 | 1009.7 |
| 20260831095516 | 26 | 156 | 0.0 | 3.2 | 0.08 | 0.10 | 0.10 | 84 | 1009.8 |
| 20260831095020 | 26 | 156 | 0.0 | 3.2 | 0.08 | 0.10 | 0.10 | 84 | 1009.7 |
| 20260831094520 | 26 | 156 | 0.0 | 4.8 | 0.08 | 0.10 | 0.10 | 83 | 1009.6 |
| 20260831094024 | 26 | 156 | 0.0 | 4.8 | 0.05 | 0.08 | 0.08 | 83 | 1009.5 |
| 20260831093524 | 27 | 226 | 0.0 | 3.2 | 0.05 | 0.08 | 0.08 | 82 | 1009.5 |
| 20260831093012 | 27 | 228 | 1.6 | 3.2 | 0.05 | 0.05 | 0.05 | 82 | 1009.5 |
| 20260831092511 | 27 | 228 | 0.0 | 1.6 | 0.05 | 0.05 | 0.05 | 82 | 1009.5 |
| 20260831092015 | 27 | 228 | 0.0 | 4.8 | 0.03 | 0.05 | 0.05 | 82 | 1009.2 |
| 20260831091515 | 27 | 229 | 1.6 | 8.0 | 0.03 | 0.05 | 0.05 | 81 | 1009.0 |
| 20260831091019 | 27 | 238 | 3.2 | 8.0 | 0.00 | 0.03 | 0.03 | 81 | 1009.0 |
| 20260831090517 | 27 | 238 | 0.0 | 6.4 | 0.00 | 0.03 | 0.03 | 82 | 1008.9 |
| 20260831090022 | 27 | 211 | 1.6 | 4.8 | 0.00 | 0.03 | 0.03 | 81 | 1009.0 |
| 20260831085522 | 27 | 108 | 1.6 | 4.8 | 0.00 | 0.03 | 0.03 | 81 | 1009.1 |
| 20260831085005 | 27 | 96 | 1.6 | 9.7 | 0.00 | 0.03 | 0.03 | 81 | 1009.2 |
| 20260831084506 | 27 | 5 | 3.2 | 9.7 | 0.00 | 0.03 | 0.03 | 81 | 1009.4 |
| 20260831084010 | 27 | 211 | 1.6 | 3.2 | 0.00 | 0.03 | 0.03 | 81 | 1009.5 |
| 20260831083510 | 27 | 207 | 0.0 | 4.8 | 0.00 | 0.03 | 0.03 | 81 | 1009.3 |
| 20260831083024 | 27 | 173 | 1.6 | 9.7 | 0.00 | 0.03 | 0.03 | 81 | 1009.3 |
| 20260831082518 | 27 | 167 | 4.8 | 9.7 | 0.00 | 0.03 | 0.03 | 81 | 1009.3 |
| 20260831082020 | 27 | 84 | 1.6 | 14.5 | 0.00 | 0.03 | 0.03 | 80 | 1009.3 |
| 20260831081533 | 27 | 351 | 1.6 | 14.5 | 0.00 | 0.03 | 0.03 | 80 | 1009.4 |
| 20260831081021 | 27 | 13 | 4.8 | 14.5 | 0.00 | 0.03 | 0.03 | 80 | 1009.4 |
| 20260831080522 | 27 | 31 | 4.8 | 14.5 | 0.00 | 0.03 | 0.03 | 79 | 1009.3 |
| 20260831080010 | 27 | 42 | 6.4 | 14.5 | 0.00 | 0.03 | 0.03 | 79 | 1009.3 |
| 20260831075508 | 27 | 11 | 4.8 | 17.7 | 0.00 | 0.03 | 0.03 | 79 | 1009.5 |
| 20260831075017 | 27 | 13 | 12.9 | 17.7 | 0.03 | 0.03 | 0.03 | 78 | 1009.8 |
| 20260831074518 | 27 | 38 | 1.6 | 9.7 | 0.03 | 0.03 | 0.03 | 78 | 1009.9 |
| 20260831074019 | 27 | 34 | 1.6 | 17.7 | 0.03 | 0.03 | 0.03 | 78 | 1009.7 |
| 20260831073518 | 27 | 51 | 4.8 | 17.7 | 0.03 | 0.03 | 0.03 | 78 | 1009.7 |
| 20260831073022 | 27 | 71 | 4.8 | 12.9 | 0.03 | 0.03 | 0.03 | 79 | 1009.8 |
| 20260831072519 | 27 | 50 | 3.2 | 8.0 | 0.03 | 0.03 | 0.03 | 79 | 1010.1 |
| 20260831072027 | 27 | 32 | 1.6 | 9.7 | 0.03 | 0.03 | 0.03 | 79 | 1010.1 |
| 20260831071531 | 27 | 76 | 3.2 | 8.0 | 0.03 | 0.03 | 0.03 | 79 | 1010.0 |
| 20260831071021 | 27 | 78 | 3.2 | 8.0 | 0.03 | 0.03 | 0.03 | 80 | 1010.0 |
| 20260831070520 | 27 | 61 | 1.6 | 9.7 | 0.03 | 0.03 | 0.03 | 79 | 1010.1 |
| 20260831070026 | 27 | 80 | 1.6 | 9.7 | 0.03 | 0.03 | 0.03 | 79 | 1010.1 |
| 20260831065522 | 27 | 94 | 3.2 | 9.7 | 0.03 | 0.03 | 0.03 | 79 | 1010.1 |
| 20260831065010 | 27 | 66 | 3.2 | 11.3 | 0.00 | 0.00 | 0.00 | 79 | 1010.3 |
| 20260831064509 | 27 | 80 | 4.8 | 11.3 | 0.00 | 0.00 | 0.00 | 78 | 1010.4 |
| 20260831064013 | 27 | 99 | 3.2 | 14.5 | 0.00 | 0.00 | 0.00 | 78 | 1010.4 |
| 20260831063516 | 27 | 80 | 3.2 | 14.5 | 0.00 | 0.00 | 0.00 | 77 | 1010.4 |
| 20260831063016 | 27 | 91 | 3.2 | 11.3 | 0.00 | 0.00 | 0.00 | 77 | 1010.5 |
| 20260831062521 | 27 | 143 | 1.6 | 8.0 | 0.00 | 0.00 | 0.00 | 77 | 1010.6 |
| 20260831062023 | 27 | 143 | 0.0 | 11.3 | 0.00 | 0.00 | 0.00 | 77 | 1010.5 |
| 20260831061522 | 27 | 178 | 4.8 | 11.3 | 0.00 | 0.00 | 0.00 | 76 | 1010.4 |
| 20260831061025 | 27 | 192 | 4.8 | 22.5 | 0.00 | 0.00 | 0.00 | 76 | 1010.5 |
| 20260831060523 | 27 | 188 | 8.0 | 22.5 | 0.00 | 0.00 | 0.00 | 75 | 1010.5 |
| 20260831060009 | 27 | 163 | 6.4 | 12.9 | 0.00 | 0.00 | 0.00 | 74 | 1010.5 |
| 20260831055510 | 28 | 176 | 3.2 | 16.1 | 0.00 | 0.00 | 0.00 | 74 | 1010.5 |
| 20260831055015 | 28 | 159 | 8.0 | 16.1 | 0.00 | 0.00 | 0.00 | 73 | 1010.5 |
| 20260831054513 | 28 | 167 | 6.4 | 12.9 | 0.00 | 0.00 | 0.00 | 72 | 1010.5 |
| 20260831054022 | 28 | 174 | 8.0 | 12.9 | 0.00 | 0.00 | 0.00 | 71 | 1010.6 |
| 20260831053520 | 28 | 194 | 6.4 | 14.5 | 0.00 | 0.00 | 0.00 | 72 | 1010.6 |
| 20260831053021 | 28 | 188 | 9.7 | 19.3 | 0.00 | 0.00 | 0.00 | 72 | 1010.7 |
| 20260831052524 | 28 | 157 | 9.7 | 22.5 | 0.00 | 0.00 | 0.00 | 71 | 1010.6 |
| 20260831052007 | 28 | 184 | 9.7 | 22.5 | 0.00 | 0.00 | 0.00 | 70 | 1010.5 |
| 20260831051505 | 29 | 142 | 11.3 | 17.7 | 0.00 | 0.00 | 0.00 | 69 | 1010.4 |
| 20260831051014 | 29 | 178 | 11.3 | 20.9 | 0.00 | 0.00 | 0.00 | 68 | 1010.2 |
| 20260831050516 | 28 | 180 | 9.7 | 19.3 | 0.00 | 0.00 | 0.00 | 67 | 1010.4 |
| 20260831050019 | 29 | 186 | 11.3 | 19.3 | 0.00 | 0.00 | 0.00 | 68 | 1010.4 |
| 20260831045521 | 29 | 183 | 12.9 | 22.5 | 0.00 | 0.00 | 0.00 | 70 | 1010.3 |
| 20260831045022 | 29 | 212 | 8.0 | 22.5 | 0.00 | 0.00 | 0.00 | 72 | 1010.1 |
| 20260831044522 | 30 | 199 | 12.9 | 24.1 | 0.00 | 0.00 | 0.00 | 74 | 1010.1 |
| 20260831044010 | 30 | 161 | 11.3 | 24.1 | 0.00 | 0.00 | 0.00 | 75 | 1010.1 |
| 20260831043510 | 30 | 262 | 11.3 | 29.0 | 0.00 | 0.00 | 0.00 | 75 | 1010.0 |
| 20260831043014 | 30 | 159 | 14.5 | 29.0 | 0.00 | 0.00 | 0.00 | 75 | 1009.9 |
| 20260831042514 | 30 | 223 | 12.9 | 24.1 | 0.00 | 0.00 | 0.00 | 74 | 1009.9 |
| 20260831042016 | 31 | 206 | 11.3 | 25.7 | 0.00 | 0.00 | 0.00 | 76 | 1009.8 |
| 20260831041528 | 31 | 200 | 6.4 | 11.3 | 0.00 | 0.00 | 0.00 | 76 | 1009.6 |
| 20260831041028 | 31 | 200 | 4.8 | 11.3 | 0.00 | 0.00 | 0.00 | 76 | 1009.4 |
| 20260831040522 | 31 | 187 | 4.8 | 8.0 | 0.00 | 0.00 | 0.00 | 76 | 1009.3 |
| 20260831040024 | 31 | 164 | 1.6 | 9.7 | 0.00 | 0.00 | 0.00 | 76 | 1009.2 |
| 20260831035507 | 31 | 160 | 3.2 | 8.0 | 0.00 | 0.00 | 0.00 | 76 | 1009.3 |
| 20260831035014 | 31 | 157 | 3.2 | 9.7 | 0.00 | 0.00 | 0.00 | 76 | 1009.2 |
| 20260831034511 | 31 | 159 | 3.2 | 9.7 | 0.00 | 0.00 | 0.00 | 76 | 1009.1 |
| 20260831034020 | 31 | 177 | 4.8 | 8.0 | 0.00 | 0.00 | 0.00 | 76 | 1009.0 |
| 20260831033519 | 31 | 197 | 3.2 | 8.0 | 0.00 | 0.00 | 0.00 | 75 | 1009.0 |
| 20260831033025 | 31 | 167 | 4.8 | 8.0 | 0.00 | 0.00 | 0.00 | 75 | 1008.9 |
| 20260831032523 | 31 | 205 | 3.2 | 12.9 | 0.00 | 0.00 | 0.00 | 75 | 1008.9 |
| 20260831032006 | 31 | 173 | 3.2 | 8.0 | 0.00 | 0.00 | 0.00 | 75 | 1008.9 |
| 20260831031507 | 31 | 163 | 4.8 | 8.0 | 0.00 | 0.00 | 0.00 | 75 | 1008.8 |
| 20260831031017 | 31 | 165 | 1.6 | 11.3 | 0.00 | 0.00 | 0.00 | 75 | 1008.8 |
| 20260831030516 | 31 | 171 | 6.4 | 11.3 | 0.00 | 0.00 | 0.00 | 75 | 1008.7 |
| 20260831030016 | 31 | 182 | 6.4 | 11.3 | 0.00 | 0.00 | 0.00 | 75 | 1008.5 |
| 20260831025516 | 31 | 157 | 4.8 | 11.3 | 0.00 | 0.00 | 0.00 | 75 | 1008.4 |
| 20260831025019 | 31 | 178 | 4.8 | 11.3 | 0.00 | 0.00 | 0.00 | 75 | 1008.5 |
| 20260831024518 | 31 | 164 | 3.2 | 8.0 | 0.00 | 0.00 | 0.00 | 75 | 1008.4 |
| 20260831024020 | 31 | 141 | 1.6 | 6.4 | 0.00 | 0.00 | 0.00 | 75 | 1008.3 |
| 20260831023518 | 31 | 184 | 0.0 | 6.4 | 0.00 | 0.00 | 0.00 | 75 | 1008.2 |
| 20260831023006 | 31 | 184 | 3.2 | 9.7 | 0.00 | 0.00 | 0.00 | 75 | 1008.1 |
| 20260831022508 | 31 | 192 | 3.2 | 8.0 | 0.00 | 0.00 | 0.00 | 75 | 1008.0 |
| 20260831022009 | 31 | 202 | 4.8 | 9.7 | 0.00 | 0.00 | 0.00 | 75 | 1007.9 |
| 20260831021532 | 31 | 197 | 3.2 | 11.3 | 0.00 | 0.00 | 0.00 | 75 | 1007.8 |
| 20260831021013 | 31 | 190 | 4.8 | 12.9 | 0.00 | 0.00 | 0.00 | 75 | 1007.6 |
| 20260831020513 | 31 | 202 | 4.8 | 14.5 | 0.00 | 0.00 | 0.00 | 75 | 1007.5 |
| 20260831020022 | 31 | 168 | 11.3 | 14.5 | 0.00 | 0.00 | 0.00 | 75 | 1007.5 |
| 20260831015526 | 31 | 175 | 6.4 | 12.9 | 0.00 | 0.00 | 0.00 | 75 | 1007.5 |
| 20260831015010 | 31 | 185 | 4.8 | 14.5 | 0.00 | 0.00 | 0.00 | 75 | 1007.3 |
| 20260831014506 | 31 | 204 | 9.7 | 14.5 | 0.00 | 0.00 | 0.00 | 75 | 1007.3 |
| 20260831014011 | 31 | 169 | 6.4 | 12.9 | 0.00 | 0.00 | 0.00 | 75 | 1007.3 |
| 20260831013511 | 31 | 227 | 4.8 | 9.7 | 0.00 | 0.00 | 0.00 | 75 | 1007.2 |
| 20260831013018 | 31 | 218 | 6.4 | 11.3 | 0.00 | 0.00 | 0.00 | 74 | 1007.1 |
| 20260831012518 | 31 | 215 | 6.4 | 11.3 | 0.00 | 0.00 | 0.00 | 74 | 1007.2 |
| 20260831012020 | 31 | 211 | 4.8 | 12.9 | 0.00 | 0.00 | 0.00 | 74 | 1007.2 |
| 20260831011520 | 32 | 193 | 6.4 | 12.9 | 0.00 | 0.00 | 0.00 | 74 | 1007.1 |
| 20260831011005 | 32 | 191 | 4.8 | 9.7 | 0.00 | 0.00 | 0.00 | 74 | 1007.0 |
| 20260831010504 | 32 | 192 | 4.8 | 11.3 | 0.00 | 0.00 | 0.00 | 74 | 1007.0 |
| 20260831010036 | 32 | 190 | 8.0 | 11.3 | 0.00 | 0.00 | 0.00 | 74 | 1007.0 |
| 20260831005515 | 32 | 192 | 3.2 | 12.9 | 0.00 | 0.00 | 0.00 | 74 | 1006.9 |
| 20260831005017 | 32 | 235 | 6.4 | 14.5 | 0.00 | 0.00 | 0.00 | 74 | 1006.7 |
| 20260831004517 | 32 | 197 | 3.2 | 14.5 | 0.00 | 0.00 | 0.00 | 73 | 1006.6 |
| 20260831004019 | 32 | 205 | 6.4 | 16.1 | 0.00 | 0.00 | 0.00 | 73 | 1006.6 |
| 20260831003519 | 32 | 190 | 8.0 | 16.1 | 0.00 | 0.00 | 0.00 | 73 | 1006.6 |
| 20260831003007 | 32 | 193 | 6.4 | 16.1 | 0.00 | 0.00 | 0.00 | 73 | 1006.5 |
| 20260831002506 | 32 | 174 | 6.4 | 16.1 | 0.00 | 0.00 | 0.00 | 73 | 1006.5 |
| 20260831002014 | 32 | 187 | 3.2 | 14.5 | 0.00 | 0.00 | 0.00 | 72 | 1006.4 |
| 20260831001523 | 32 | 184 | 8.0 | 14.5 | 0.00 | 0.00 | 0.00 | 72 | 1006.4 |
| 20260831001018 | 32 | 264 | 4.8 | 12.9 | 0.00 | 0.00 | 0.00 | 72 | 1006.4 |
| 20260831000515 | 32 | 174 | 6.4 | 12.9 | 0.00 | 0.00 | 0.00 | 73 | 1006.4 |
| 20260831000018 | 32 | 198 | 6.4 | 11.3 | 0.00 | 0.00 | 0.00 | 73 | 1006.4 |
| 20260830235517 | 32 | 244 | 3.2 | 11.3 | 0.00 | 0.00 | 0.00 | 73 | 1006.3 |
| 20260830235004 | 32 | 240 | 6.4 | 11.3 | 0.00 | 0.00 | 0.00 | 73 | 1006.1 |
| 20260830234504 | 32 | 213 | 6.4 | 14.5 | 0.00 | 0.00 | 0.00 | 73 | 1006.2 |
| 20260830234007 | 32 | 254 | 8.0 | 14.5 | 0.00 | 0.00 | 0.00 | 74 | 1006.1 |
| 20260830233510 | 32 | 271 | 6.4 | 12.9 | 0.00 | 0.00 | 0.00 | 74 | 1006.1 |
| 20260830233015 | 32 | 184 | 6.4 | 11.3 | 0.00 | 0.00 | 0.00 | 74 | 1006.2 |
| 20260830232511 | 32 | 213 | 4.8 | 12.9 | 0.00 | 0.00 | 0.00 | 74 | 1006.2 |
| 20260830232120 | 33 | 228 | 6.4 | 12.9 | 0.00 | 0.00 | 0.00 | 74 | 1006.1 |
| 20260830231527 | 33 | 175 | 6.4 | 16.1 | 0.00 | 0.00 | 0.00 | 73 | 1006.0 |
| 20260830231024 | 33 | 257 | 3.2 | 12.9 | 0.00 | 0.00 | 0.00 | 74 | 1005.9 |
| 20260830230522 | 33 | 232 | 4.8 | 14.5 | 0.00 | 0.00 | 0.00 | 73 | 1005.9 |
| 20260830230009 | 33 | 208 | 1.6 | 12.9 | 0.00 | 0.00 | 0.00 | 74 | 1005.9 |
| 20260830225509 | 33 | 221 | 6.4 | 11.3 | 0.00 | 0.00 | 0.00 | 73 | 1005.9 |
| 20260830225038 | 33 | 250 | 4.8 | 14.5 | 0.00 | 0.00 | 0.00 | 73 | 1005.9 |
| 20260830224546 | 33 | 265 | 6.4 | 14.5 | 0.00 | 0.00 | 0.00 | 74 | 1005.9 |
| 20260830224006 | 33 | 213 | 6.4 | 12.9 | 0.00 | 0.00 | 0.00 | 73 | 1005.9 |
| 20260830223505 | 33 | 184 | 8.0 | 12.9 | 0.00 | 0.00 | 0.00 | 72 | 1006.0 |
| 20260830223016 | 33 | 217 | 6.4 | 12.9 | 0.00 | 0.00 | 0.00 | 73 | 1006.2 |
| 20260830222509 | 33 | 206 | 8.0 | 12.9 | 0.00 | 0.00 | 0.00 | 72 | 1006.1 |
| 20260830222024 | 33 | 171 | 4.8 | 12.9 | 0.00 | 0.00 | 0.00 | 72 | 1006.2 |
| 20260830221518 | 33 | 259 | 4.8 | 11.3 | 0.00 | 0.00 | 0.00 | 73 | 1006.2 |
| 20260830221021 | 33 | 297 | 4.8 | 12.9 | 0.00 | 0.00 | 0.00 | 73 | 1006.2 |
| 20260830220521 | 33 | 238 | 3.2 | 17.7 | 0.00 | 0.00 | 0.00 | 74 | 1006.3 |
| 20260830220008 | 32 | 190 | 8.0 | 17.7 | 0.00 | 0.00 | 0.00 | 73 | 1006.4 |
| 20260830215506 | 32 | 186 | 8.0 | 12.9 | 0.00 | 0.00 | 0.00 | 74 | 1006.3 |
| 20260830215012 | 33 | 210 | 8.0 | 12.9 | 0.00 | 0.00 | 0.00 | 73 | 1006.4 |
| 20260830214512 | 32 | 199 | 8.0 | 12.9 | 0.00 | 0.00 | 0.00 | 72 | 1006.4 |
| 20260830214019 | 33 | 234 | 6.4 | 11.3 | 0.00 | 0.00 | 0.00 | 72 | 1006.5 |
| 20260830213522 | 33 | 194 | 3.2 | 11.3 | 0.00 | 0.00 | 0.00 | 72 | 1006.5 |
| 20260830213005 | 33 | 246 | 4.8 | 14.5 | 0.00 | 0.00 | 0.00 | 73 | 1006.5 |
| 20260830212504 | 33 | 237 | 4.8 | 14.5 | 0.00 | 0.00 | 0.00 | 72 | 1006.6 |
| 20260830212009 | 33 | 250 | 6.4 | 11.3 | 0.00 | 0.00 | 0.00 | 71 | 1006.6 |
| 20260830211518 | 33 | 216 | 3.2 | 14.5 | 0.00 | 0.00 | 0.00 | 70 | 1006.7 |
| 20260830211019 | 33 | 269 | 4.8 | 14.5 | 0.00 | 0.00 | 0.00 | 69 | 1006.8 |
| 20260830210517 | 33 | 238 | 8.0 | 14.5 | 0.00 | 0.00 | 0.00 | 69 | 1006.8 |
| 20260830210019 | 33 | 272 | 4.8 | 16.1 | 0.00 | 0.00 | 0.00 | 69 | 1006.9 |
| 20260830205520 | 34 | 302 | 4.8 | 14.5 | 0.00 | 0.00 | 0.00 | 68 | 1007.1 |
| 20260830205020 | 33 | 269 | 3.2 | 17.7 | 0.00 | 0.00 | 0.00 | 71 | 1007.1 |
| 20260830204519 | 33 | 200 | 11.3 | 17.7 | 0.00 | 0.00 | 0.00 | 70 | 1007.1 |
| 20260830204011 | 34 | 190 | 8.0 | 14.5 | 0.00 | 0.00 | 0.00 | 69 | 1007.2 |
| 20260830203507 | 34 | 205 | 6.4 | 19.3 | 0.00 | 0.00 | 0.00 | 68 | 1007.3 |
| 20260830203016 | 34 | 255 | 8.0 | 19.3 | 0.00 | 0.00 | 0.00 | 67 | 1007.5 |
| 20260830202514 | 34 | 250 | 6.4 | 12.9 | 0.00 | 0.00 | 0.00 | 67 | 1007.5 |
| 20260830202017 | 34 | 225 | 4.8 | 11.3 | 0.00 | 0.00 | 0.00 | 67 | 1007.5 |
| 20260830201516 | 33 | 190 | 4.8 | 11.3 | 0.00 | 0.00 | 0.00 | 70 | 1007.6 |
| 20260830201022 | 33 | 238 | 6.4 | 14.5 | 0.00 | 0.00 | 0.00 | 70 | 1007.6 |
| 20260830200521 | 33 | 184 | 6.4 | 12.9 | 0.00 | 0.00 | 0.00 | 69 | 1007.7 |
| 20260830200008 | 33 | 184 | 4.8 | 12.9 | 0.00 | 0.00 | 0.00 | 69 | 1007.8 |
| 20260830195507 | 33 | 161 | 4.8 | 14.5 | 0.00 | 0.00 | 0.00 | 68 | 1007.8 |
| 20260830195012 | 34 | 248 | 4.8 | 12.9 | 0.00 | 0.00 | 0.00 | 67 | 1007.9 |
| 20260830194511 | 34 | 175 | 8.0 | 17.7 | 0.00 | 0.00 | 0.00 | 67 | 1008.0 |
| 20260830194022 | 34 | 194 | 6.4 | 17.7 | 0.00 | 0.00 | 0.00 | 67 | 1008.1 |
| 20260830193520 | 33 | 212 | 6.4 | 16.1 | 0.00 | 0.00 | 0.00 | 68 | 1008.1 |
| 20260830193025 | 33 | 234 | 9.7 | 16.1 | 0.00 | 0.00 | 0.00 | 67 | 1008.3 |
| 20260830192523 | 34 | 217 | 8.0 | 17.7 | 0.00 | 0.00 | 0.00 | 65 | 1008.3 |
| 20260830192008 | 33 | 238 | 8.0 | 17.7 | 0.00 | 0.00 | 0.00 | 66 | 1008.4 |
| 20260830191508 | 33 | 193 | 8.0 | 16.1 | 0.00 | 0.00 | 0.00 | 65 | 1008.5 |
| 20260830191018 | 33 | 244 | 9.7 | 16.1 | 0.00 | 0.00 | 0.00 | 65 | 1008.6 |
| 20260830190514 | 33 | 167 | 9.7 | 14.5 | 0.00 | 0.00 | 0.00 | 65 | 1008.6 |
| 20260830190022 | 33 | 208 | 6.4 | 16.1 | 0.00 | 0.00 | 0.00 | 64 | 1008.6 |
| 20260830185519 | 33 | 168 | 9.7 | 17.7 | 0.00 | 0.00 | 0.00 | 63 | 1008.6 |
| 20260830185018 | 33 | 210 | 8.0 | 14.5 | 0.00 | 0.00 | 0.00 | 64 | 1008.6 |
| 20260830184517 | 33 | 174 | 9.7 | 16.1 | 0.00 | 0.00 | 0.00 | 64 | 1008.7 |
| 20260830184025 | 33 | 183 | 9.7 | 16.1 | 0.00 | 0.00 | 0.00 | 63 | 1008.8 |
| 20260830183523 | 33 | 183 | 8.0 | 12.9 | 0.00 | 0.00 | 0.00 | 63 | 1008.9 |
| 20260830183012 | 33 | 247 | 6.4 | 11.3 | 0.00 | 0.00 | 0.00 | 65 | 1009.1 |
| 20260830182507 | 33 | 254 | 4.8 | 12.9 | 0.00 | 0.00 | 0.00 | 64 | 1009.1 |
| 20260830182012 | 33 | 246 | 4.8 | 12.9 | 0.00 | 0.00 | 0.00 | 63 | 1009.2 |
| 20260830181512 | 33 | 235 | 4.8 | 14.5 | 0.00 | 0.00 | 0.00 | 62 | 1009.2 |
| 20260830181015 | 33 | 258 | 8.0 | 14.5 | 0.00 | 0.00 | 0.00 | 64 | 1009.3 |
| 20260830180516 | 33 | 229 | 6.4 | 12.9 | 0.00 | 0.00 | 0.00 | 64 | 1009.4 |
| 20260830180045 | 33 | 253 | 6.4 | 12.9 | 0.00 | 0.00 | 0.00 | 64 | 1009.5 |
| 20260830175522 | 33 | 238 | 4.8 | 12.9 | 0.00 | 0.00 | 0.00 | 64 | 1009.6 |
| 20260830175007 | 33 | 292 | 3.2 | 9.7 | 0.00 | 0.00 | 0.00 | 67 | 1009.7 |
| 20260830174512 | 32 | 229 | 3.2 | 14.5 | 0.00 | 0.00 | 0.00 | 68 | 1009.9 |
| 20260830174012 | 32 | 281 | 6.4 | 14.5 | 0.00 | 0.00 | 0.00 | 67 | 1010.0 |
| 20260830173511 | 33 | 234 | 6.4 | 14.5 | 0.00 | 0.00 | 0.00 | 67 | 1010.0 |
| 20260830173049 | 32 | 217 | 4.8 | 9.7 | 0.00 | 0.00 | 0.00 | 67 | 1010.0 |
| 20260830172519 | 32 | 223 | 4.8 | 11.3 | 0.00 | 0.00 | 0.00 | 68 | 1010.0 |
| 20260830172028 | 32 | 229 | 4.8 | 9.7 | 0.00 | 0.00 | 0.00 | 69 | 1010.1 |
| 20260830171524 | 32 | 217 | 6.4 | 11.3 | 0.00 | 0.00 | 0.00 | 69 | 1010.1 |
| 20260830171011 | 32 | 223 | 6.4 | 9.7 | 0.00 | 0.00 | 0.00 | 69 | 1010.2 |
| 20260830170512 | 32 | 258 | 4.8 | 11.3 | 0.00 | 0.00 | 0.00 | 70 | 1010.3 |
| 20260830170020 | 32 | 218 | 3.2 | 12.9 | 0.00 | 0.00 | 0.00 | 69 | 1010.3 |
| 20260830165519 | 32 | 213 | 6.4 | 12.9 | 0.00 | 0.00 | 0.00 | 69 | 1010.3 |
| 20260830165030 | 32 | 213 | 1.6 | 9.7 | 0.00 | 0.00 | 0.00 | 69 | 1010.4 |
| 20260830164524 | 32 | 315 | 3.2 | 12.9 | 0.00 | 0.00 | 0.00 | 70 | 1010.4 |
| 20260830164009 | 32 | 259 | 6.4 | 12.9 | 0.00 | 0.00 | 0.00 | 68 | 1010.4 |
| 20260830163508 | 32 | 262 | 4.8 | 9.7 | 0.00 | 0.00 | 0.00 | 69 | 1010.5 |
| 20260830163023 | 32 | 207 | 3.2 | 9.7 | 0.00 | 0.00 | 0.00 | 69 | 1010.6 |
| 20260830162521 | 32 | 315 | 3.2 | 8.0 | 0.00 | 0.00 | 0.00 | 71 | 1010.6 |
| 20260830162021 | 32 | 219 | 1.6 | 8.0 | 0.00 | 0.00 | 0.00 | 71 | 1010.6 |
| 20260830161518 | 32 | 265 | 1.6 | 11.3 | 0.00 | 0.00 | 0.00 | 70 | 1010.5 |
| 20260830161025 | 31 | 221 | 6.4 | 11.3 | 0.00 | 0.00 | 0.00 | 71 | 1010.6 |
| 20260830160524 | 31 | 275 | 4.8 | 11.3 | 0.00 | 0.00 | 0.00 | 70 | 1010.6 |
| 20260830160009 | 31 | 261 | 3.2 | 6.4 | 0.00 | 0.00 | 0.00 | 71 | 1010.5 |
| 20260830155512 | 31 | 228 | 1.6 | 11.3 | 0.00 | 0.05 | 0.00 | 71 | 1010.5 |
| 20260830155020 | 31 | 198 | 3.2 | 11.3 | 0.00 | 0.05 | 0.00 | 72 | 1010.6 |
| 20260830154517 | 31 | 205 | 4.8 | 9.7 | 0.00 | 0.05 | 0.00 | 72 | 1010.6 |
| 20260830154019 | 31 | 188 | 6.4 | 9.7 | 0.00 | 0.05 | 0.00 | 71 | 1010.7 |
| 20260830153521 | 31 | 209 | 3.2 | 8.0 | 0.00 | 0.05 | 0.00 | 70 | 1010.7 |
| 20260830153022 | 31 | 239 | 3.2 | 8.0 | 0.00 | 0.05 | 0.00 | 71 | 1010.8 |
| 20260830152519 | 31 | 171 | 1.6 | 9.7 | 0.00 | 0.05 | 0.00 | 70 | 1010.8 |
| 20260830152008 | 30 | 186 | 3.2 | 6.4 | 0.00 | 0.05 | 0.00 | 70 | 1010.8 |
| 20260830151504 | 30 | 227 | 1.6 | 4.8 | 0.00 | 0.05 | 0.00 | 70 | 1010.7 |
| 20260830151011 | 30 | 228 | 1.6 | 4.8 | 0.00 | 0.05 | 0.00 | 71 | 1010.6 |
| 20260830150509 | 30 | 232 | 1.6 | 3.2 | 0.00 | 0.05 | 0.00 | 73 | 1010.6 |
| 20260830150017 | 29 | 5 | 0.0 | 4.8 | 0.00 | 0.05 | 0.00 | 73 | 1010.5 |
| 20260830145515 | 29 | 5 | 0.0 | 4.8 | 0.00 | 0.05 | 0.00 | 74 | 1010.6 |
| 20260830145023 | 29 | 5 | 0.0 | 6.4 | 0.00 | 0.05 | 0.00 | 74 | 1010.6 |
| 20260830144526 | 28 | 5 | 1.6 | 6.4 | 0.00 | 0.05 | 0.00 | 75 | 1010.4 |
| 20260830144008 | 28 | 317 | 3.2 | 6.4 | 0.00 | 0.05 | 0.00 | 75 | 1010.3 |
| 20260830143507 | 28 | 300 | 1.6 | 4.8 | 0.00 | 0.05 | 0.00 | 76 | 1010.3 |
| 20260830143015 | 28 | 9 | 0.0 | 4.8 | 0.00 | 0.05 | 0.00 | 79 | 1010.3 |
| 20260830142511 | 28 | 5 | 0.0 | 3.2 | 0.00 | 0.05 | 0.00 | 79 | 1010.3 |
| 20260830142019 | 28 | 74 | 1.6 | 3.2 | 0.00 | 0.05 | 0.00 | 80 | 1010.2 |
| 20260830141518 | 27 | 74 | 0.0 | 3.2 | 0.00 | 0.05 | 0.00 | 80 | 1010.1 |
| 20260830141021 | 27 | 74 | 1.6 | 3.2 | 0.00 | 0.05 | 0.00 | 80 | 1010.1 |
| 20260830140525 | 27 | 74 | 0.0 | 3.2 | 0.00 | 0.05 | 0.00 | 80 | 1010.0 |
| 20260830140011 | 27 | 74 | 0.0 | 3.2 | 0.00 | 0.05 | 0.00 | 80 | 1009.9 |
| 20260830135509 | 27 | 74 | 0.0 | 1.6 | 0.00 | 0.05 | 0.00 | 80 | 1009.8 |
| 20260830135022 | 27 | 74 | 0.0 | 1.6 | 0.00 | 0.05 | 0.00 | 80 | 1009.7 |
| 20260830134534 | 27 | 19 | 0.0 | 1.6 | 0.00 | 0.05 | 0.00 | 80 | 1009.8 |
| 20260830134020 | 27 | 31 | 0.0 | 0.0 | 0.00 | 0.05 | 0.00 | 80 | 1009.9 |
| 20260830133519 | 27 | 31 | 0.0 | 1.6 | 0.00 | 0.05 | 0.00 | 80 | 1009.9 |
| 20260830133026 | 27 | 31 | 0.0 | 1.6 | 0.00 | 0.05 | 0.00 | 80 | 1009.8 |
| 20260830132520 | 27 | 31 | 0.0 | 1.6 | 0.00 | 0.05 | 0.00 | 80 | 1009.9 |
| 20260830132011 | 27 | 31 | 0.0 | 3.2 | 0.00 | 0.05 | 0.00 | 80 | 1010.0 |
| 20260830131509 | 27 | 347 | 0.0 | 3.2 | 0.00 | 0.05 | 0.00 | 80 | 1010.1 |
| 20260830131011 | 27 | 360 | 0.0 | 4.8 | 0.00 | 0.05 | 0.00 | 80 | 1010.1 |
| 20260830130511 | 27 | 343 | 0.0 | 4.8 | 0.00 | 0.05 | 0.00 | 80 | 1010.0 |
| 20260830130016 | 27 | 337 | 1.6 | 4.8 | 0.00 | 0.05 | 0.00 | 80 | 1010.0 |
| 20260830125516 | 27 | 5 | 0.0 | 3.2 | 0.00 | 0.05 | 0.00 | 80 | 1010.1 |
| 20260830125019 | 27 | 5 | 1.6 | 3.2 | 0.00 | 0.05 | 0.00 | 80 | 1010.1 |
| 20260830124522 | 27 | 5 | 0.0 | 3.2 | 0.00 | 0.05 | 0.00 | 80 | 1010.1 |
| 20260830124023 | 27 | 5 | 0.0 | 3.2 | 0.00 | 0.05 | 0.00 | 80 | 1010.1 |
| 20260830123522 | 27 | 5 | 0.0 | 1.6 | 0.00 | 0.05 | 0.00 | 80 | 1010.0 |
| 20260830123008 | 27 | 5 | 0.0 | 1.6 | 0.00 | 0.05 | 0.00 | 80 | 1010.1 |
| 20260830122509 | 27 | 5 | 0.0 | 4.8 | 0.00 | 0.05 | 0.00 | 79 | 1009.9 |
| 20260830122011 | 27 | 5 | 0.0 | 4.8 | 0.00 | 0.05 | 0.00 | 79 | 1009.8 |
| 20260830121511 | 27 | 5 | 0.0 | 4.8 | 0.00 | 0.05 | 0.00 | 79 | 1009.8 |
| 20260830121021 | 27 | 5 | 1.6 | 8.0 | 0.00 | 0.05 | 0.00 | 79 | 1009.8 |
| 20260830120520 | 27 | 13 | 1.6 | 8.0 | 0.00 | 0.05 | 0.00 | 79 | 1009.9 |
| 20260830120006 | 27 | 348 | 3.2 | 4.8 | 0.00 | 0.05 | 0.00 | 79 | 1009.8 |
| 20260830115506 | 27 | 348 | 0.0 | 3.2 | 0.00 | 0.05 | 0.00 | 79 | 1009.6 |
| 20260830115012 | 27 | 348 | 0.0 | 3.2 | 0.00 | 0.05 | 0.00 | 79 | 1009.6 |
| 20260830114510 | 27 | 348 | 0.0 | 1.6 | 0.00 | 0.05 | 0.00 | 79 | 1009.6 |
| 20260830114020 | 27 | 348 | 0.0 | 1.6 | 0.00 | 0.05 | 0.00 | 79 | 1009.5 |
| 20260830113518 | 27 | 348 | 0.0 | 1.6 | 0.00 | 0.05 | 0.00 | 79 | 1009.4 |
| 20260830113025 | 27 | 348 | 0.0 | 0.0 | 0.00 | 0.05 | 0.00 | 79 | 1009.4 |
| 20260830112524 | 27 | 348 | 0.0 | 1.6 | 0.00 | 0.05 | 0.00 | 79 | 1009.4 |